Lexington, KY

4:55 PM EDT on September 29, 2016 (GMT -0400)
Blue Grass

Weather History for KLEX - November, 2014

Change the Weather History Date:

Friday, November 21, 2014

  Actual Average Record
Temperature  
Mean Temperature 27 °F 44 °F  
Max Temperature 39 °F 53 °F 77 °F (1934)
Min Temperature 14 °F 35 °F 9 °F (1887)
Degree Days  
Heating Degree Days 38 21  
Month to date heating degree days 568 355  
Since 1 July heating degree days 816 681  
Cooling Degree Days 0 0  
Month to date cooling degree days 0 0  
Year to date cooling degree days 1274 1188  
Moisture  
Dew Point 13 °F    
Average Humidity 57    
Maximum Humidity 84    
Minimum Humidity 29    
Precipitation  
Precipitation 0.00 in 0.13 in 1.84 in (1942)
Month to date precipitation 1.37 2.40  
Year to date precipitation 49.92 40.11  
Snow  
Snow 0.00 in 0.00 in 2.30 in (1926)
Month to date snowfall 1.6 0.1  
Since 1 July snowfall 1.6 0.1  
Since 1 September snowfall 1.6 0.1  
Snow Depth 0.00 in    
Sea Level Pressure  
Sea Level Pressure 30.46 in    
Wind  
Wind Speed 5 mph (ESE)    
Max Wind Speed 10 mph    
Max Gust Speed 14 mph    
Visibility 9 miles    
Events      
T = Trace of Precipitation, MM = Missing Value Source: NWS Daily Summary

Daily Weather History Graph

Daily Weather History Graph

Search for Another Location

Airport or City:

Trip Planner

Search our weather history database for the weather conditions in past years. The results will help you decide how hot, cold, wet, or windy it might be!

Date:

Astronomy

Nov. 21, 2014 Rise Set
Actual Time 7:25 AM EST 5:22 PM EST
Civil Twilight 6:57 AM EST 5:51 PM EST
Nautical Twilight 6:24 AM EST 6:23 PM EST
Astronomical Twilight 5:53 AM EST 6:54 PM EST
Moon 6:21 AM EST (11/21) 5:05 PM EST (11/21)
Length of Visible Light 10h 54m
Length of Day
9h 57m
Waning Crescent, 1% of the Moon is Illuminated
Nov 21
Waning Crescent
Nov 22
New
Nov 29
First Quarter
Dec 6
Full
Dec 14
Last Quarter

Hourly Weather History & Observations

Time (EST) Temp. Windchill Dew Point Humidity Pressure Visibility Wind Dir Wind Speed Gust Speed Precip Events Conditions
12:54 AM 21.9 °F 15.7 °F 15.1 °F 75% 30.35 in 10.0 mi WSW 4.6 mph - N/A   Clear
1:54 AM 21.9 °F 17.2 °F 15.1 °F 75% 30.36 in 10.0 mi WSW 3.5 mph - N/A   Clear
2:54 AM 19.9 °F 13.4 °F 15.1 °F 81% 30.38 in 10.0 mi SSW 4.6 mph - N/A   Clear
3:54 AM 21.0 °F - 15.1 °F 78% 30.40 in 10.0 mi Calm Calm - N/A   Clear
4:54 AM 19.0 °F - 15.1 °F 85% 30.43 in 9.0 mi Calm Calm - N/A   Clear
5:54 AM 19.0 °F - 15.1 °F 85% 30.45 in 8.0 mi Calm Calm - N/A   Clear
6:54 AM 17.1 °F - 14.0 °F 88% 30.48 in 8.0 mi Calm Calm - N/A   Clear
7:54 AM 17.1 °F 11.7 °F 14.0 °F 88% 30.50 in 6.0 mi SSE 3.5 mph - N/A   Clear
8:54 AM 23.0 °F - 18.0 °F 81% 30.52 in 6.0 mi Calm Calm - N/A   Haze
9:54 AM 28.0 °F 21.7 °F 18.0 °F 66% 30.53 in 10.0 mi East 5.8 mph - N/A   Clear
10:54 AM 30.9 °F 27.5 °F 14.0 °F 50% 30.54 in 10.0 mi Variable 3.5 mph - N/A   Clear
11:54 AM 33.1 °F 28.7 °F 10.0 °F 38% 30.53 in 10.0 mi NNE 4.6 mph - N/A   Clear
12:54 PM 35.1 °F 30.1 °F 10.0 °F 35% 30.51 in 10.0 mi ENE 5.8 mph - N/A   Clear
1:54 PM 37.0 °F - 9.0 °F 31% 30.49 in 10.0 mi North - - N/A   Clear
2:54 PM 37.9 °F - 10.0 °F 32% 30.48 in 10.0 mi North - - N/A   Clear
3:54 PM 39.0 °F 33.4 °F 10.0 °F 30% 30.47 in 10.0 mi ESE 8.1 mph - N/A   Clear
4:54 PM 37.0 °F 31.6 °F 12.0 °F 36% 30.47 in 10.0 mi East 6.9 mph - N/A   Clear
5:54 PM 36.0 °F 33.3 °F 10.9 °F 36% 30.47 in 10.0 mi ESE 3.5 mph - N/A   Clear
6:54 PM 30.9 °F 23.5 °F 12.0 °F 46% 30.46 in 10.0 mi East 8.1 mph - N/A   Clear
7:54 PM 30.9 °F 24.3 °F 12.0 °F 46% 30.45 in 10.0 mi ESE 6.9 mph - N/A   Clear
8:54 PM 30.9 °F 26.2 °F 12.0 °F 46% 30.45 in 10.0 mi ESE 4.6 mph - N/A   Clear
9:54 PM 28.0 °F 20.8 °F 14.0 °F 56% 30.44 in 10.0 mi SE 6.9 mph - N/A   Clear
10:54 PM 30.0 °F 21.7 °F 12.9 °F 49% 30.42 in 10.0 mi SE 9.2 mph - N/A   Clear
11:54 PM 32.0 °F 23.6 °F 12.9 °F 45% 30.39 in 10.0 mi SE 10.4 mph - N/A   Scattered Clouds